Regional Weather Roundup
Issued by NWS Sioux Falls, SD

Home | Current Version | Previous Version | Graphics & Text | Print | Product List | Glossary On
Versions: 1 2 3 4 5 6 7 8 9 10 11 12 13 14 15 16 17 18 19 20 21 22 23 24 25 26 27 28 29 30 31 32 33 34 35 36 37 38 39 40 41 42 43 44 45 46 47 48 49 50
000
ASUS43 KFSD 291110
RWRFSD

WEATHER ROUNDUP FOR SE SOUTH DAKOTA/SW MINNESOTA/NW IOWA
NATIONAL WEATHER SERVICE SIOUX FALLS SD
600 AM CDT WED JUL 29 2015

NOTE: "FAIR" INDICATES FEW OR NO CLOUDS BELOW 12,000 FEET WITH NO
SIGNIFICANT WEATHER AND OR OBSTRUCTIONS TO VISIBILITY.


SDZ038>040-050-052>070-291200-
SOUTHEAST SOUTH DAKOTA

CITY           SKY/WX    TMP DP  RH WIND       PRES   REMARKS
BROOKINGS      CLEAR     57  46  67 SW10      30.06S
CHAMBERLAIN    CLEAR     58  49  74 W7        30.13R
HURON          CLEAR     59  48  67 SW10      30.05R
MADISON        FAIR      55  52  88 SW13      30.08R
MITCHELL       CLEAR     61  50  67 W10       30.09R
SIOUX FALLS    CLEAR     60  51  72 SW3       30.09R
WINNER         FAIR      61  44  53 SW9       30.16R
YANKTON        CLEAR     61  52  72 S5        30.11R
$$

MNZ071-072-080-081-089-090-097-098-291200-
SOUTHWEST MINNESOTA

CITY           SKY/WX    TMP DP  RH WIND       PRES   REMARKS
FAIRMONT       CLEAR     61  48  63 W9        30.04R
JACKSON        CLEAR     61  52  72 W9        30.07R
LUVERNE        CLEAR     59  52  77 W9        30.09S
MARSHALL       CLEAR     61  48  63 SW10      30.03R
MONTEVIDEO     CLEAR     63  50  63 W14G20    29.98S
PIPESTONE      CLEAR     57  50  77 W5        30.08R
REDWOOD FALLS  CLEAR     64  50  60 W15       29.98R
TRACY          CLEAR     63  50  63 W9G16     30.03S
WINDOM         CLEAR     57  52  82 SW9       30.05S
WORTHINGTON    CLEAR     59  48  67 W9        30.08S
$$

IAZ001>003-012>014-020>022-031-032-NEZ013-014-SDZ071-291200-
NORTHWEST IOWA

CITY           SKY/WX    TMP DP  RH WIND       PRES   REMARKS
CHEROKEE       FOG       54  54 100 CALM      30.11R VSB 1/2
DENISON        CLEAR     57  57 100 CALM      30.10R
ESTHERVILLE    CLEAR     56  53  90 SW8       30.07R
LE MARS        CLEAR     55  55 100 S3        30.12R
ORANGE CITY    CLEAR     55  54  94 W3        30.11R
SHELDON        CLEAR     57  54  88 SW6       30.09R
SIOUX CITY     CLEAR     58  55  90 CALM      30.12R
SPENCER          N/A     54  51  90 SW5       30.09R
STORM LAKE     CLEAR     59  57  94 W10       30.11S
$$

ABBREVIATIONS USED IN REMARKS
   TC - TEMPERATURE IN CELSIUS
  WCI - WIND CHILL INDEX
   HX - HEAT INDEX
  VSB - VISIBILITY




USA.gov is the U.S. government's official web portal to all federal, state and local government web resources and services.